EW1970 Weather Reports


time (UTC)temp
C
wind
direction
speed
KPH
gust
KPH
rain 1hr
cm
rain 24hr
cm
rain mn
cm
humidity
%
barometer
mb
20260905024516 28 91 0.0 6.4 0.00 0.00 0.00 69 1014.3
20260905023025 28 82 0.0 6.4 0.00 0.00 0.00 70 1014.2
20260905021527 28 144 0.0 6.4 0.00 0.00 0.00 71 1013.9
20260905020027 28 103 0.0 6.4 0.00 0.00 0.00 70 1013.8
20260905014534 28 149 0.0 3.2 0.00 0.00 0.00 70 1013.8
20260905013016 28 111 1.6 6.4 0.00 0.00 0.00 69 1013.7
20260905011512 28 98 1.6 9.7 0.00 0.00 0.00 70 1013.7
20260905010008 28 24 0.0 3.2 0.00 0.00 0.00 70 1013.4
20260905004514 29 78 0.0 6.4 0.00 0.00 0.00 69 1013.2
20260905003026 30 159 0.0 4.8 0.00 0.00 0.00 67 1013.1
20260905001509 30 154 0.0 8.0 0.00 0.00 0.00 66 1013.1
20260905000034 30 69 1.6 9.7 0.00 0.00 0.00 65 1012.9
20260904234505 30 256 0.0 14.5 0.00 0.00 0.00 65 1012.9
20260904233011 30 146 0.0 8.0 0.00 0.00 0.00 64 1012.9
20260904231519 31 115 1.6 11.3 0.00 0.00 0.00 62 1012.9
20260904230045 31 166 3.2 14.5 0.00 0.00 0.00 60 1013.0
20260904224530 33 221 1.6 9.7 0.00 0.00 0.00 48 1012.7
20260904223007 34 89 1.6 14.5 0.00 0.00 0.00 48 1012.7
20260904221515 33 115 1.6 14.5 0.00 0.00 0.00 51 1012.7
20260904220002 34 250 1.6 6.4 0.00 0.00 0.00 49 1012.8
20260904214504 33 350 1.6 12.9 0.00 0.00 0.00 46 1013.2
20260904213007 35 99 1.6 11.3 0.00 0.00 0.00 41 1013.3
20260904211513 35 33 1.6 12.9 0.00 0.00 0.00 45 1013.5
20260904210026 34 103 1.6 11.3 0.00 0.00 0.00 45 1013.7
20260904204526 34 257 3.2 11.3 0.00 0.00 0.00 46 1013.9
20260904203006 34 201 0.0 11.3 0.00 0.00 0.00 44 1014.1
20260904201509 35 292 1.6 11.3 0.00 0.00 0.00 46 1014.3
20260904200037 33 119 1.6 12.9 0.00 0.00 0.00 48 1014.5
20260904194534 34 164 4.8 11.3 0.00 0.00 0.00 47 1014.6
20260904193026 33 226 1.6 6.4 0.00 0.00 0.00 55 1014.9
20260904191514 32 273 1.6 11.3 0.00 0.00 0.00 60 1015.0
20260904190016 30 109 1.6 8.0 0.00 0.00 0.00 65 1015.3
20260904184528 30 281 1.6 9.7 0.00 0.00 0.00 66 1015.5
20260904183030 31 144 1.6 8.0 0.00 0.00 0.00 64 1015.6
20260904181509 30 234 0.0 3.2 0.00 0.00 0.00 71 1015.6
20260904180011 29 138 0.0 4.8 0.00 0.00 0.00 72 1015.8
20260904174525 30 53 0.0 3.2 0.00 0.00 0.00 72 1015.9
20260904173023 29 140 0.0 6.4 0.00 0.00 0.00 72 1016.0
20260904171530 29 149 0.0 8.0 0.00 0.00 0.00 73 1015.9
20260904170013 28 132 1.6 3.2 0.00 0.00 0.00 74 1016.1
20260904164534 28 260 0.0 6.4 0.00 0.00 0.00 73 1016.1
20260904163021 28 255 0.0 11.3 0.00 0.00 0.00 75 1016.1
20260904161505 28 248 0.0 4.8 0.00 0.00 0.00 76 1016.0
20260904160032 28 107 0.0 9.7 0.00 0.00 0.00 77 1015.9
20260904154513 28 36 3.2 12.9 0.00 0.00 0.00 78 1015.9
20260904153019 28 200 1.6 12.9 0.00 0.00 0.00 80 1015.8
20260904151503 28 273 4.8 11.3 0.00 0.00 0.00 79 1015.7
20260904150005 28 194 4.8 6.4 0.00 0.00 0.00 81 1015.8
20260904144511 27 214 1.6 9.7 0.00 0.00 0.00 84 1015.7
20260904143016 27 283 1.6 4.8 0.00 0.00 0.00 85 1015.7
20260904141503 26 274 0.0 6.4 0.00 0.00 0.00 87 1015.6
20260904140005 26 217 0.0 12.9 0.00 0.00 0.00 88 1015.5
20260904134508 26 213 0.0 9.7 0.00 0.00 0.00 90 1015.4
20260904133013 25 248 3.2 6.4 0.00 0.00 0.00 91 1015.3
20260904131532 25 246 0.0 4.8 0.00 0.00 0.00 91 1015.2
20260904130004 25 240 0.0 3.2 0.00 0.00 0.00 90 1015.3
20260904124509 26 159 0.0 3.2 0.00 0.00 0.00 89 1015.3
20260904123012 26 283 0.0 3.2 0.00 0.00 0.00 88 1015.2
20260904121518 26 187 0.0 4.8 0.00 0.00 0.00 88 1014.9
20260904120029 26 107 0.0 4.8 0.00 0.00 0.00 88 1014.7
20260904114506 26 140 0.0 6.4 0.00 0.00 0.00 87 1014.5
20260904113010 26 119 0.0 6.4 0.00 0.00 0.00 87 1014.4
20260904111517 26 141 0.0 4.8 0.00 0.00 0.00 86 1014.2
20260904110024 26 309 0.0 3.2 0.00 0.00 0.00 86 1014.2
20260904104527 26 111 0.0 4.8 0.00 0.00 0.00 86 1014.2
20260904103010 26 119 1.6 6.4 0.00 0.00 0.00 85 1014.1
20260904101514 26 138 1.6 4.8 0.00 0.00 0.00 85 1014.0
20260904100027 26 310 0.0 6.4 0.00 0.00 0.00 85 1013.9
20260904094526 26 148 0.0 3.2 0.00 0.00 0.00 84 1013.7
20260904093052 26 319 0.0 6.4 0.00 0.00 0.00 83 1013.6
20260904091515 26 223 1.6 8.0 0.00 0.00 0.00 83 1013.8
20260904090019 26 242 0.0 3.2 0.00 0.00 0.00 83 1013.8
20260904084524 26 135 0.0 4.8 0.00 0.00 0.00 83 1013.8
20260904083029 26 290 0.0 8.0 0.00 0.00 0.00 84 1013.8
20260904081532 26 97 0.0 4.8 0.00 0.00 0.00 83 1013.8
20260904080018 26 191 1.6 12.9 0.00 0.00 0.00 83 1013.8
20260904074522 26 252 3.2 8.0 0.00 0.00 0.00 83 1013.8
20260904073048 26 248 3.2 16.1 0.00 0.00 0.00 83 1013.9
20260904071535 26 277 0.0 11.3 0.00 0.00 0.00 83 1014.1
20260904070033 26 171 0.0 4.8 0.00 0.00 0.00 83 1014.3
20260904064520 26 78 0.0 4.8 0.00 0.00 0.00 82 1014.3
20260904063026 26 300 0.0 6.4 0.00 0.00 0.00 82 1014.3
20260904061508 26 208 1.6 6.4 0.00 0.00 0.00 81 1014.2
20260904060012 26 43 1.6 9.7 0.00 0.00 0.00 80 1014.4
20260904054517 26 29 1.6 8.0 0.00 0.00 0.00 80 1014.3
20260904053003 26 224 1.6 11.3 0.00 0.00 0.00 80 1014.1
20260904051506 26 204 1.6 11.3 0.00 0.00 0.00 80 1014.1
20260904050008 26 143 3.2 12.9 0.00 0.00 0.00 80 1014.0
20260904044517 26 147 1.6 11.3 0.00 0.00 0.00 79 1014.1
20260904043017 26 144 3.2 11.3 0.00 0.00 0.00 79 1013.9
20260904041503 27 171 0.0 9.7 0.00 0.00 0.00 79 1014.0
20260904040008 26 115 0.0 8.0 0.00 0.00 0.00 78 1013.9
20260904034516 27 107 1.6 9.7 0.00 0.00 0.00 78 1013.8
20260904033030 27 157 1.6 14.5 0.00 0.00 0.00 77 1013.7
20260904031525 27 128 1.6 14.5 0.00 0.00 0.00 76 1013.7
20260904030003 27 151 1.6 11.3 0.00 0.00 0.00 74 1013.4